STARLINK-4692, 53603

Orbit data source: Space-Track

STARLINK-4692, 53603 is a payload satellite owned by SpaceX/Seattle (US) in LEO that was launched on Sun, 28 Aug 2022 UTC via an FALCON 9 launch vehicle from the Air Force Eastern Test Range (AFETR). Payload-class satellites include a variety of spacecraft equipped with specific instruments for various scientific and technological missions. These include communications satellites like Starlink; space stations such as the ISS; scientific satellites like the Hubble; Earth observation satellites from companies like Planet Labs, Umbra, and HawkEye 360; GPS; miniature CubeSats for education and research; and military/defense satellites.

Loading next visibility...
Identifier
53603, 2022-104R
Orbit
LEO
Country
Flag of USUS
Related business
Manufacturer
SpaceX/Seattle
Mission
Operational Commercial Communications
Bus & Motor
STARLINK, Unknown motor
Mass
300 kg wet, ~290 kg dry
Launch date (UTC)
2022-08-28 (3 years ago)
Launch vehicle
FALCON 9
Launch site
Air Force Eastern Test Range (AFETR)
Object type
Payload
Rocket body
Debris
Shape & HBR
Box + 1 Pan, 10.1 m
Radar Cross Section
13.562 m², Large (>1 m²)

Expand to show TLE details & history
Last TLE update: 1 day ago

TLE from 1 day ago
0 STARLINK-4692
1 53603U 22104R   26036.23866994 -.00001081  00000-0 -49823-4 0  9992
2 53603  53.2197  24.9727 0001722  96.2601 263.8587 15.08842691190781
Epoch: 2026-02-05T05:43Z
TLE epoch observation values (Epoch: 2026-02-05T05:43:41.082Z)
Latitude
-0.00007°
Longitude
163.65771°
Altitude
540.761 km
Speed
7.593 km/s
True Right ascension
01h 39m 53s
True Declination
0° 00' 00"
Sunlit
Object was in daylight at epoch
Visualization orbit readout
Latitude
Unknown
Longitude
Unknown
Altitude
Unknown
Speed
Unknown
Apparent Right ascension
Unknown
Apparent Declination
Unknown
Sunlit
N/A
Visualization observer readout
Local Sidereal Time
09:07:26
Azimuth
Unknown
Elevation
Unknown
Doppler factor
Unknown
Orbital elements
Apogee altitude
541.171 km
Perigee altitude
538.788 km
Semi-major axis
6,918.117 km
Eccentricity
0.00017
Inclination
53.2197°
RAAN
24.9727°
Arg. of periapsis
96.2601°
True anomaly
263.83908°
Mean anomaly
263.8587°
Eccentric anomaly
263.84889°
Mean motion
3.77191 °/min
Orbital period
95.44 mins
BSTAR
-0.000049823
Loading maneuver chart data...
Computing Atmospheric mass density...
Loading historical data...
Loading historical data...
Loading historical data...
Loading historical data...
Loading historical data...
Loading historical data...
Loading historical data...

Documentation

Showing up to 5 results
|